Location: *
(53.1888°N, 4.3288°W)
Time: 22:40:45
(UTC+00:00)

Daily predictions for brighter satellites

Satellite Brightness Start Highest point End
(mag) Time Altitude Azimuth Time Altitude Azimuth Time Altitude Azimuth
SWARM A 4.4 21:17:53 10° S 21:21:10 59° E 21:24:30 10° N
Cosmos 1500 Rocket 4.2 21:17:09 10° SSE 21:21:18 39° E 21:25:29 10° NNE
Aureole 1 Rocket 3.9 21:16:32 10° SSW 21:21:43 88° WNW 21:28:40 10° NNE
Cosmos 1933 3.6 21:19:42 10° N 21:23:43 54° ENE 21:27:41 10° SSE
CZ-2C R/B 2.8 21:18:34 10° NNE 21:23:44 54° E 21:28:49 10° S
Nadezhda 4 Rocket 4.1 21:17:28 10° N 21:23:50 82° E 21:30:06 10° SSE
Iridium 4 Rocket 4.2 21:26:48 10° N 21:32:40 67° W 21:38:27 10° S
Terra 2.2 21:28:07 10° SE 21:32:44 52° ENE 21:37:21 10° N
DMSP B5D2-2 4.3 21:28:05 10° NNE 21:33:19 77° WNW 21:38:31 10° SSW
USA 81 4.4 21:28:22 10° N 21:33:34 54° ENE 21:38:44 10° SSE
Thor Agena Rocket 3.8 21:28:46 10° NNE 21:33:40 47° E 21:38:31 10° S
Cosmos 2151 3.5 21:29:40 10° SSW 21:33:56 65° WNW 21:38:14 10° N
Cosmos 2034 Rocket 4.0 21:27:58 10° S 21:34:12 78° E 21:40:32 10° NNE
Cosmos 407 Rocket 4.2 21:29:26 10° SSE 21:34:15 36° ESE 21:39:08 10° NE
Cosmos 44 3.9 21:29:57 10° SW 21:35:08 66° NW 21:40:03 10° NE
Cosmos 2322 Rocket 2.2 21:31:13 10° SSW 21:36:56 82° ESE 21:42:40 10° NNE
Cosmos 2084 4.3 21:32:44 10° WSW 21:37:11 59° NW 21:41:31 10° NE
Cosmos 2219 Rocket 3.7 21:33:35 10° SE 21:37:22 19° E 21:41:09 10° ENE
USA 229 DEB 4.3 21:32:59 10° S 21:38:50 34° ESE 21:44:55 10° NE
USA 229 4.3 21:33:06 10° S 21:38:56 34° ESE 21:45:01 10° NE
Cosmos 44 Rocket 3.4 21:34:06 10° SSW 21:39:08 59° SE 21:44:04 10° NE
Cosmos 1825 2.6 21:36:06 10° SSE 21:39:41 43° E 21:43:17 10° NNE
BREEZE-M DEB (TANK) 2.2 21:37:49 10° SW 21:39:48 34° SSE 21:43:13 10° E
Meteor 1-26 Rocket 4.4 21:34:40 10° N 21:40:21 65° ENE 21:45:52 10° SSE
Cosmos 2278 Rocket 3.3 21:35:14 10° NNW 21:40:28 36° NE 21:45:39 10° ESE
Cosmos 2251 Rocket 4.1 21:35:29 10° SW 21:40:40 62° WNW 21:45:54 10° NNE
Meteor 2-3 Rocket 4.4 21:35:19 10° SSE 21:40:41 41° E 21:46:06 10° NNE
ATLAS 5 CENTAUR R/B 4.0 21:36:48 10° NW 21:41:12 28° N 21:46:10 10° ENE
BREEZE-M DEB (TANK) 2.9 21:39:23 10° SW 21:41:28 23° SSE 21:43:20 10° ESE
Cosmos 1092 Rocket 4.1 21:35:47 10° N 21:42:05 76° ENE 21:48:16 10° SSE
SL-16 R/B 2.3 21:37:13 10° SSW 21:42:54 84° WNW 21:48:38 10° NNE
ERS-1 Rocket 3.2 21:38:20 10° S 21:43:23 76° WSW 21:48:28 10° NNW
Cosmos 2333 Rocket 3.6 21:39:51 10° SSE 21:43:53 20° E 21:47:56 10° NE
ADEOS Rocket 3.5 21:40:36 10° N 21:46:14 59° WNW 21:51:36 10° SW
Gbstr 26 Del rocket 2.8 21:42:49 10° WSW 21:46:39 52° SSE 21:50:17 10° E
EO 1 Del DPAF 3.2 21:43:54 10° NNE 21:47:44 90° NW 21:51:33 10° SSW
Cosmos 1707 Rocket 4.4 21:44:16 10° N 21:48:26 37° ENE 21:52:17 12° SE
Cosmos 1743 Rocket 3.5 21:44:05 10° S 21:48:27 76° E 21:52:48 10° NNE
Cosmos 1607 4.0 21:42:20 10° NW 21:48:32 87° NE 21:54:31 11° SE
IGS 5A 3.6 21:44:34 10° S 21:48:44 74° WSW 21:52:56 10° NNW
Cosmos 1515 Rocket 4.3 21:48:52 10° NNW 21:53:06 50° W 21:57:17 10° S
Cosmos 1844 Rocket 2.8 21:48:50 10° NNW 21:54:32 77° WSW 21:59:54 12° SSE
Cosmos 2322 4.2 21:50:04 10° S 21:55:19 41° ESE 22:00:37 10° NE
Helios 1A 4.3 21:54:51 10° ESE 21:58:25 28° ENE 22:02:01 10° N
Cosmos 2263 Rocket 4.2 21:54:22 10° NW 21:58:31 21° W 22:02:39 10° SSW
USA 215 3.4 21:54:56 10° ENE 22:01:31 84° NNW 22:08:06 10° WSW
SPOT 1/Viking Rocket 4.2 22:01:51 10° S 22:06:53 52° W 22:12:00 10° NNW
Lacrosse 5 rocket 2.2 22:03:52 10° WNW 22:08:28 58° NNE 22:12:58 10° E
Cosmos 1634 Rocket 4.1 22:02:45 10° S 22:08:56 65° E 22:15:06 10° NNE
CENTAUR R/B 4.4 22:02:44 10° WNW 22:09:10 38° N 22:16:31 10° ENE
Cosmos 1892 4.4 22:08:07 10° SW 22:11:39 34° WNW 22:15:11 10° N
Landsat 4 3.7 22:09:47 10° NNE 22:13:29 59° ESE 22:16:49 12° S
Cosmos 1805 Rocket 3.8 22:09:39 12° S 22:13:32 54° E 22:17:47 10° NNE
ATLAS 3B R/B 4.4 22:07:47 10° WNW 22:13:45 33° N 22:19:44 10° ENE
Cosmos 2026 Rocket 4.0 22:09:14 10° N 22:15:21 90° ESE 22:21:00 12° S
IRAS Rocket 4.3 22:11:40 14° SSE 22:16:36 79° ENE 22:22:16 10° NNW
Cosmos 2237 4.2 22:11:55 10° SSW 22:17:36 75° ESE 22:23:18 10° NE
Cosmos 1356 Rocket 4.4 22:13:38 10° NNW 22:17:43 45° W 22:21:49 10° SSW
Cosmos 1655 Rocket 4.3 22:12:16 10° N 22:18:28 57° ENE 22:23:37 15° SSE
Cosmos 2228 Rocket 4.2 22:14:37 10° NNW 22:18:53 41° W 22:23:10 10° SSW
SPOT 5 3.6 22:15:16 10° S 22:20:09 49° W 22:24:51 10° NNW
Cosmos 1818 3.7 22:14:45 10° NW 22:20:13 70° SW 22:24:37 16° SSE
Cosmos 1782 2.8 22:18:44 10° N 22:22:47 76° ENE 22:25:49 17° SSE
Mayak 0.0 22:21:34 10° NNE 22:25:15 28° E 22:27:40 17° SE
SL-4 R/B 3.1 22:22:25 10° SSW 22:26:42 31° SSE 22:30:52 10° E
Cosmos 1812 4.4 22:26:04 10° NNE 22:29:12 23° ENE 22:31:48 13° ESE
Cosmos 1400 Rocket 4.3 22:28:28 10° N 22:32:04 27° ENE 22:34:59 13° ESE
Cosmos 1666 Rocket 3.9 22:30:46 17° SSE 22:34:00 50° E 22:38:21 10° NNE
Cosmos 1844 4.2 22:29:02 10° NW 22:34:27 51° WSW 22:38:56 15° S
Cosmos 1862 4.5 22:33:05 18° SE 22:35:15 29° E 22:38:44 10° NNE
ATLAS CENTAUR R/B 2.0 22:30:57 10° NW 22:35:48 63° NE 22:39:44 14° ESE
COSMOS 2428 3.0 22:30:50 12° S 22:35:59 48° ESE 22:41:28 10° NE
Cosmos 1633 Rocket 3.6 22:33:25 18° SSE 22:36:16 43° E 22:40:25 10° NNE
ALOS 2 3.9 22:33:16 13° ESE 22:36:36 30° ENE 22:40:25 10° N
Helios 1B rocket 4.2 22:34:58 10° NE 22:37:55 18° E 22:39:43 14° ESE
ASTEX 1 3.4 22:36:08 10° N 22:41:10 88° E 22:45:27 14° S
ISS -3.6 22:38:45 10° WSW 22:41:59 47° SSE 22:45:12 10° E
GP-B 4.2 22:38:36 10° NNE 22:42:35 31° E 22:45:14 17° SE
Meteor 2-6 Rocket 4.1 22:37:32 10° NNW 22:42:59 83° ENE 22:47:10 18° SSE
Cosmos 1862 Rocket 3.8 22:41:22 10° N 22:45:39 56° ENE 22:48:29 20° SSE
Cosmos 1023 Rocket 4.5 22:43:04 10° SSW 22:48:14 87° ESE 22:53:31 10° NNE
SL-19 R/B 3.7 22:45:47 10° NNE 22:49:09 65° ESE 22:50:52 23° S
Lacrosse 5 2.2 22:44:44 10° WNW 22:49:49 70° NNE 22:54:54 10° ESE
Cosmos 2360 Rocket 2.7 22:44:51 10° SW 22:50:27 63° NW 22:56:04 10° NNE
Cosmos 676 Rocket 4.0 22:45:44 10° SSW 22:50:57 78° ESE 22:56:15 10° NNE
Cosmos 1606 4.3 22:47:46 10° NNW 22:51:02 28° W 22:54:15 10° SSW
NOSS 3-1 (C) 3.4 22:45:43 10° SSW 22:51:21 67° SE 22:57:58 10° NE
Cosmos 2237 Rocket 3.2 22:49:41 18° SSE 22:52:34 28° ESE 22:57:17 10° NE
Cosmos 1470 Rocket 4.3 22:51:23 20° SSE 22:53:48 37° E 22:57:52 10° NNE
COSMOS 2455 4.4 22:51:59 14° SE 22:54:14 17° ESE 22:58:01 10° ENE
Akebono 4.3 22:52:26 10° NNW 22:54:37 67° WSW 22:55:42 31° S
Sich 1 3.0 22:51:30 16° SSW 22:54:58 85° WNW 22:59:17 10° N
MOS 1 Rocket 3.5 22:55:29 10° N 22:59:52 65° WNW 23:04:24 10° SSW
Cosmos 1633 3.1 22:59:07 25° SSE 23:00:44 41° E 23:04:07 10° NNE
Cosmos 724 4.4 22:54:41 10° NW 23:00:49 86° NE 23:05:33 17° SE
CZ-2C R/B 4.4 22:59:16 10° N 23:03:48 30° WNW 23:08:15 10° WSW
Cosmos 1954 Rocket 4.0 23:00:15 10° SSW 23:05:30 89° WNW 23:10:50 10° NNE
Cosmos 2266 Rocket 4.1 22:59:16 10° N 23:05:43 77° ENE 23:10:16 20° SSE
Terra 3.5 23:06:46 10° SSW 23:10:46 26° W 23:14:46 10° NW
Cosmos 1850 Rocket 4.3 23:07:42 20° S 23:11:10 51° ESE 23:16:21 10° NNE
Cosmos 1140 Rocket 3.9 23:08:52 10° SW 23:14:01 65° WNW 23:19:14 10° NNE
Meteor 1-27 Rocket 3.8 23:09:24 10° NNW 23:15:19 85° E 23:19:24 21° SSE
Cosmos 2297 4.2 23:12:55 10° NNW 23:18:30 56° NE 23:23:14 14° SE
Cosmos 540 Rocket 4.1 23:14:12 10° NNW 23:19:11 49° ENE 23:23:07 16° SE
Cosmos 2219 Rocket 2.2 23:14:51 10° SSW 23:20:33 87° ESE 23:26:16 10° NNE
Cosmos 2279 Rocket 4.2 23:15:43 13° SSW 23:21:22 68° WNW 23:27:35 10° N
Cosmos 2322 Rocket 4.3 23:16:45 10° W 23:21:39 28° NW 23:26:34 10° NNE
Cosmos 2333 4.5 23:17:16 10° SW 23:22:58 69° NW 23:28:39 10° NNE
Spot 4 4.2 23:20:16 21° S 23:23:21 56° W 23:28:05 10° NNW
ARGOS Delta rocket 3.7 23:22:00 24° S 23:24:39 82° W 23:29:17 10° NNW
Cosmos 2278 Rocket 2.4 23:19:18 10° NW 23:24:53 60° WSW 23:28:27 22° S
Cosmos 1943 Rocket 3.9 23:21:46 10° NNW 23:26:28 28° NE 23:31:11 10° E
ATLAS 5 CENTAUR R/B 3.0 23:21:43 10° NW 23:26:57 50° NNE 23:33:00 10° ESE
Cosmos 2333 Rocket 2.2 23:21:44 10° SSW 23:27:28 87° WNW 23:33:12 10° NNE
NOSS 8 (A) 4.2 23:25:54 11° SW 23:28:56 79° NW 23:32:11 10° NE
USA 229 DEB 3.9 23:22:36 10° SW 23:29:17 76° NW 23:36:22 10° NE
USA 229 3.9 23:22:42 10° SW 23:29:24 77° NW 23:36:28 10° NE
NOSS 3-1 (A) 3.4 23:26:33 10° SW 23:32:17 78° SE 23:39:02 10° NE
Gbstr 26 Del rocket 2.5 23:29:29 10° W 23:33:13 72° S 23:37:02 10° E
Helios 1A 3.9 23:31:28 20° SSW 23:33:51 39° W 23:37:49 10° NNW
SeaSat 1 2.9 23:31:15 10° NE 23:36:00 43° ESE 23:38:30 25° S
Cosmos 841 Rocket 3.5 23:31:12 10° NNW 23:36:23 79° ENE 23:39:43 22° SSE
Meteor 1-29 3.4 23:37:47 10° NNE 23:41:09 47° E 23:42:19 32° SSE
NOSS 2-3 (E) 3.9 23:40:32 20° SSW 23:43:35 60° SE 23:49:01 10° NE
Cosmos 1763 Rocket 3.7 23:38:38 10° NNW 23:43:44 61° WSW 23:46:44 25° S
USA 215 3.7 23:37:55 10° ENE 23:44:23 65° N 23:50:51 10° W
NOSS 2-3 (D) 3.9 23:43:26 21° SSW 23:46:23 59° SE 23:51:47 10° NE
Lacrosse 5 rocket 1.5 23:43:15 10° WNW 23:47:50 65° SSW 23:50:39 22° SE
Cosmos 2369 Rocket 3.6 23:45:34 10° NNW 23:50:50 36° NE 23:56:04 10° ESE
